Tracking 31027 objects as of 19-Jul-2025
HD Live streaming from Space Station
objects crossing your sky now

CZ-4C DEB

Track CZ-4C DEB now!
10-day predictions


NORAD ID: 44613
Int'l Code: 2017-072D
Perigee: 802.6 km
Apogee: 1,141.2 km
Inclination: 98.5 °
Period: 104.4 minutes
Semi major axis: 7342 km
RCS: Unknown
Launch date: November 14, 2017
Source: People's Republic of China (PRC)
Launch site: Jiuquan Satellite Launch Center, China (JSC)

Note: This is SATELLITE DEBRIS
Your satellite tracking list
ATLAS 2A CENTAUR R/B
Track 1 satellite(s)




NASA's NSSDC Master Catalog

Two Line Element Set (TLE):
1 44613U 17072D   25199.61179966  .00000388  00000-0  33652-3 0  9997
2 44613  98.5379 262.6375 0230601 173.6481 186.7686 13.79754910371935
Source of the keplerian elements: AFSPC